STARLINK-3817, 52367

Orbit data source: Space-Track

STARLINK-3817, 52367 is a payload satellite owned by SpaceX/Seattle (US) in LEO that was launched on Fri, 29 Apr 2022 UTC via an FALCON 9 launch vehicle from the Air Force Eastern Test Range (AFETR). Payload-class satellites include a variety of spacecraft equipped with specific instruments for various scientific and technological missions. These include communications satellites like Starlink; space stations such as the ISS; scientific satellites like the Hubble; Earth observation satellites from companies like Planet Labs, Umbra, and HawkEye 360; GPS; miniature CubeSats for education and research; and military/defense satellites.

Loading next visibility...
Identifier
52367, 2022-045AN
Orbit
LEO
Country
Flag of USUS
Related business
Manufacturer
SpaceX/Seattle
Mission
Operational Commercial Communications
Bus & Motor
STARLINK, Unknown motor
Mass
297 kg wet, ~275 kg dry
Launch date (UTC)
2022-04-29 (4 years ago)
Launch vehicle
FALCON 9
Launch site
Air Force Eastern Test Range (AFETR)
Object type
Payload
Rocket body
Debris
Shape & HBR
Box + 1 Pan, 10.1 m
Radar Cross Section
11.087 m², Large (>1 m²)

Expand to show TLE details & history
Last TLE update: 17 hours ago

TLE from 17 hours ago
0 STARLINK-3817
1 52367U 22045AN  25349.92192239  .00000552  00000-0  52759-4 0  9990
2 52367  53.2162 205.1664 0001389  90.5913 269.5238 15.08836254203277
Epoch: 2025-12-15T22:07Z
TLE epoch observation values (Epoch: 2025-12-15T22:07:34.094Z)
Latitude
-0.00005°
Longitude
148.46076°
Altitude
540.66 km
Speed
7.593 km/s
True Right ascension
13h 40m 39s
True Declination
0° 00' 00"
Sunlit
Object was in daylight at epoch
Visualization orbit readout
Latitude
Unknown
Longitude
Unknown
Altitude
Unknown
Speed
Unknown
Apparent Right ascension
Unknown
Apparent Declination
Unknown
Sunlit
N/A
Visualization observer readout
Local Sidereal Time
13:48:17
Azimuth
Unknown
Elevation
Unknown
Doppler factor
Unknown
Orbital elements
Apogee altitude
540.961 km
Perigee altitude
539.039 km
Semi-major axis
6,918.137 km
Eccentricity
0.00014
Inclination
53.2162°
RAAN
205.1664°
Arg. of periapsis
90.5913°
True anomaly
269.50788°
Mean anomaly
269.5238°
Eccentric anomaly
269.51584°
Mean motion
3.77189 °/min
Orbital period
95.44 mins
BSTAR
0.000052759
Loading maneuver chart data...
Computing Atmospheric mass density...

Documentation

Showing up to 5 results
|